Year,Month,Day,Hour,Minute,Value (Times are PST for temperature in C)
2008,09,30,00,00,9.60
2008,09,30,00,01,9.60
2008,09,30,00,02,9.60
2008,09,30,00,03,9.60
2008,09,30,00,04,9.60
2008,09,30,00,05,9.60
2008,09,30,00,06,9.50
2008,09,30,00,07,9.50
2008,09,30,00,08,9.50
2008,09,30,00,09,9.50
2008,09,30,00,10,9.50
2008,09,30,00,11,9.50
2008,09,30,00,12,9.60
2008,09,30,00,13,9.60
2008,09,30,00,14,9.60
2008,09,30,00,15,9.60
2008,09,30,00,16,9.60
2008,09,30,00,17,9.60
2008,09,30,00,18,9.60
2008,09,30,00,19,9.60
2008,09,30,00,20,9.60
2008,09,30,00,21,9.60
2008,09,30,00,22,9.60
2008,09,30,00,23,9.60
2008,09,30,00,24,9.60
2008,09,30,00,25,9.60
2008,09,30,00,26,9.60
2008,09,30,00,27,9.60
2008,09,30,00,28,9.60
2008,09,30,00,29,9.60
2008,09,30,00,30,9.60
2008,09,30,00,31,9.60
2008,09,30,00,32,9.60
2008,09,30,00,33,9.50
2008,09,30,00,34,9.50
2008,09,30,00,35,9.50
2008,09,30,00,36,9.50
2008,09,30,00,37,9.40
2008,09,30,00,38,9.40
2008,09,30,00,39,9.40
2008,09,30,00,40,9.40
2008,09,30,00,41,9.40
2008,09,30,00,42,9.40
2008,09,30,00,43,9.30
2008,09,30,00,44,9.30
2008,09,30,00,45,9.30
2008,09,30,00,46,9.30
2008,09,30,00,47,9.30
2008,09,30,00,48,9.30
2008,09,30,00,49,9.30
2008,09,30,00,50,9.30
2008,09,30,00,51,9.30
2008,09,30,00,52,9.30
2008,09,30,00,53,9.30
2008,09,30,00,54,9.30
2008,09,30,00,55,9.30
2008,09,30,00,56,9.40
2008,09,30,00,57,9.40
2008,09,30,00,58,9.40
2008,09,30,00,59,9.40
2008,09,30,01,00,9.40
2008,09,30,01,01,9.40
2008,09,30,01,02,9.40
2008,09,30,01,03,9.40
2008,09,30,01,04,9.40
2008,09,30,01,05,9.40
2008,09,30,01,06,9.40
2008,09,30,01,07,9.40
2008,09,30,01,08,9.50
2008,09,30,01,09,9.50
2008,09,30,01,10,9.60
2008,09,30,01,11,9.60
2008,09,30,01,12,9.70
2008,09,30,01,13,9.80
2008,09,30,01,14,9.80
2008,09,30,01,15,9.90
2008,09,30,01,16,10.00
2008,09,30,01,17,10.00
2008,09,30,01,18,10.10
2008,09,30,01,19,10.10
2008,09,30,01,20,10.10
2008,09,30,01,21,10.20
2008,09,30,01,22,10.20
2008,09,30,01,23,10.20
2008,09,30,01,24,10.20
2008,09,30,01,25,10.20
2008,09,30,01,26,10.20
2008,09,30,01,27,10.20
2008,09,30,01,28,10.20
2008,09,30,01,29,10.20
2008,09,30,01,30,10.30
2008,09,30,01,31,10.30
2008,09,30,01,32,10.40
2008,09,30,01,33,10.50
2008,09,30,01,34,10.50
2008,09,30,01,35,10.60
2008,09,30,01,36,10.60
2008,09,30,01,37,10.70
2008,09,30,01,38,10.70
2008,09,30,01,39,10.70
2008,09,30,01,40,10.80
2008,09,30,01,41,10.80
2008,09,30,01,42,10.80
2008,09,30,01,43,10.90
2008,09,30,01,44,10.90
2008,09,30,01,45,10.90
2008,09,30,01,46,10.90
2008,09,30,01,47,11.00
2008,09,30,01,48,11.00
2008,09,30,01,49,11.00
2008,09,30,01,50,11.00
2008,09,30,01,51,11.00
2008,09,30,01,52,11.00
2008,09,30,01,53,11.10
2008,09,30,01,54,11.10
2008,09,30,01,55,11.10
2008,09,30,01,56,11.10
2008,09,30,01,57,11.10
2008,09,30,01,58,11.10
2008,09,30,01,59,11.10
2008,09,30,02,00,11.10
2008,09,30,02,01,11.10
2008,09,30,02,02,11.10
2008,09,30,02,03,11.10
2008,09,30,02,04,11.00
2008,09,30,02,05,11.00
2008,09,30,02,06,11.00
2008,09,30,02,07,11.00
2008,09,30,02,08,10.90
2008,09,30,02,09,10.90
2008,09,30,02,10,10.90
2008,09,30,02,11,10.90
2008,09,30,02,12,10.90
2008,09,30,02,13,10.90
2008,09,30,02,14,10.80
2008,09,30,02,15,10.80
2008,09,30,02,16,10.80
2008,09,30,02,17,10.80
2008,09,30,02,18,10.80
2008,09,30,02,19,10.80
2008,09,30,02,20,10.80
2008,09,30,02,21,10.80
2008,09,30,02,22,10.80
2008,09,30,02,23,10.70
2008,09,30,02,24,10.70
2008,09,30,02,25,10.70
2008,09,30,02,26,10.80
2008,09,30,02,27,10.80
2008,09,30,02,28,10.80
2008,09,30,02,29,10.80
2008,09,30,02,30,10.80
2008,09,30,02,31,10.80
2008,09,30,02,32,10.80
2008,09,30,02,33,10.80
2008,09,30,02,34,10.80
2008,09,30,02,35,10.80
2008,09,30,02,36,10.80
2008,09,30,02,37,10.80
2008,09,30,02,38,10.80
2008,09,30,02,39,10.80
2008,09,30,02,40,10.80
2008,09,30,02,41,10.80
2008,09,30,02,42,10.80
2008,09,30,02,43,10.80
2008,09,30,02,44,10.70
2008,09,30,02,45,10.70
2008,09,30,02,46,10.70
2008,09,30,02,47,10.70
2008,09,30,02,48,10.70
2008,09,30,02,49,10.70
2008,09,30,02,50,10.60
2008,09,30,02,51,10.60
2008,09,30,02,52,10.60
2008,09,30,02,53,10.60
2008,09,30,02,54,10.50
2008,09,30,02,55,10.50
2008,09,30,02,56,10.50
2008,09,30,02,57,10.40
2008,09,30,02,58,10.40
2008,09,30,02,59,10.40
2008,09,30,03,00,10.40
2008,09,30,03,01,10.30
2008,09,30,03,02,10.30
2008,09,30,03,03,10.30
2008,09,30,03,04,10.30
2008,09,30,03,05,10.30
2008,09,30,03,06,10.20
2008,09,30,03,07,10.20
2008,09,30,03,08,10.20
2008,09,30,03,09,10.20
2008,09,30,03,10,10.20
2008,09,30,03,11,10.20
2008,09,30,03,12,10.20
2008,09,30,03,13,10.10
2008,09,30,03,14,10.10
2008,09,30,03,15,10.10
2008,09,30,03,16,10.10
2008,09,30,03,17,10.00
2008,09,30,03,18,10.00
2008,09,30,03,19,9.90
2008,09,30,03,20,9.90
2008,09,30,03,21,9.90
2008,09,30,03,22,9.90
2008,09,30,03,23,9.90
2008,09,30,03,24,9.90
2008,09,30,03,25,9.90
2008,09,30,03,26,9.90
2008,09,30,03,27,9.90
2008,09,30,03,28,9.90
2008,09,30,03,29,9.90
2008,09,30,03,30,9.90
2008,09,30,03,31,9.90
2008,09,30,03,32,9.90
2008,09,30,03,33,9.80
2008,09,30,03,34,9.80
2008,09,30,03,35,9.80
2008,09,30,03,36,9.80
2008,09,30,03,37,9.80
2008,09,30,03,38,9.80
2008,09,30,03,39,9.80
2008,09,30,03,40,9.70
2008,09,30,03,41,9.70
2008,09,30,03,42,9.70
2008,09,30,03,43,9.70
2008,09,30,03,44,9.70
2008,09,30,03,45,9.70
2008,09,30,03,46,9.70
2008,09,30,03,47,9.60
2008,09,30,03,48,9.60
2008,09,30,03,49,9.60
2008,09,30,03,50,9.60
2008,09,30,03,51,9.60
2008,09,30,03,52,9.60
2008,09,30,03,53,9.60
2008,09,30,03,54,9.60
2008,09,30,03,55,9.60
2008,09,30,03,56,9.60
2008,09,30,03,57,9.60
2008,09,30,03,58,9.60
2008,09,30,03,59,9.60
2008,09,30,04,00,9.60
2008,09,30,04,01,9.60
2008,09,30,04,02,9.60
2008,09,30,04,03,9.60
2008,09,30,04,04,9.60
2008,09,30,04,05,9.60
2008,09,30,04,06,9.60
2008,09,30,04,07,9.60
2008,09,30,04,08,9.60
2008,09,30,04,09,9.60
2008,09,30,04,24,9.50
2008,09,30,04,43,9.30
2008,09,30,04,55,9.20
2008,09,30,05,13,9.20
2008,09,30,05,24,9.10
2008,09,30,05,41,8.90
2008,09,30,05,53,9.00
2008,09,30,06,14,8.80
2008,09,30,06,32,8.70
2008,09,30,06,53,8.40
2008,09,30,07,14,8.30
2008,09,30,07,22,8.20
2008,09,30,07,23,8.20
2008,09,30,07,24,8.20
2008,09,30,07,25,8.20
2008,09,30,07,26,8.20
2008,09,30,07,27,8.20
2008,09,30,07,28,8.20
2008,09,30,07,29,8.20
2008,09,30,07,30,8.20
2008,09,30,07,31,8.20
2008,09,30,07,32,8.20
2008,09,30,07,33,8.20
2008,09,30,07,34,8.20
2008,09,30,07,35,8.20
2008,09,30,07,36,8.20
2008,09,30,07,37,8.20
2008,09,30,07,38,8.20
2008,09,30,07,39,8.30
2008,09,30,07,40,8.30
2008,09,30,07,41,8.30
2008,09,30,07,42,8.30
2008,09,30,07,43,8.30
2008,09,30,07,44,8.40
2008,09,30,07,45,8.40
2008,09,30,07,46,8.40
2008,09,30,07,47,8.40
2008,09,30,07,48,8.40
2008,09,30,07,49,8.40
2008,09,30,07,50,8.50
2008,09,30,07,51,8.50
2008,09,30,07,52,8.50
2008,09,30,07,53,8.50
2008,09,30,07,54,8.50
2008,09,30,07,55,8.50
2008,09,30,07,56,8.50
2008,09,30,07,57,8.50
2008,09,30,07,58,8.50
2008,09,30,07,59,8.50
2008,09,30,08,00,8.50
2008,09,30,08,01,8.50
2008,09,30,08,02,8.50
2008,09,30,08,03,8.50
2008,09,30,08,04,8.50
2008,09,30,08,05,8.50
2008,09,30,08,06,8.50
2008,09,30,08,07,8.60
2008,09,30,08,08,8.60
2008,09,30,08,09,8.60
2008,09,30,08,10,8.60
2008,09,30,08,11,8.60
2008,09,30,08,12,8.60
2008,09,30,08,13,8.60
2008,09,30,08,14,8.70
2008,09,30,08,15,8.70
2008,09,30,08,16,8.70
2008,09,30,08,17,8.70
2008,09,30,08,18,8.70
2008,09,30,08,19,8.70
2008,09,30,08,20,8.80
2008,09,30,08,21,8.80
2008,09,30,08,22,8.80
2008,09,30,08,23,8.80
2008,09,30,08,24,8.90
2008,09,30,08,25,8.90
2008,09,30,08,26,8.90
2008,09,30,08,27,9.00
2008,09,30,08,28,9.00
2008,09,30,08,29,9.10
2008,09,30,08,30,9.10
2008,09,30,08,31,9.20
2008,09,30,08,32,9.20
2008,09,30,08,33,9.30
2008,09,30,08,34,9.40
2008,09,30,08,35,9.50
2008,09,30,08,36,9.60
2008,09,30,08,37,9.60
2008,09,30,08,38,9.70
2008,09,30,08,39,9.80
2008,09,30,08,40,9.80
2008,09,30,08,41,9.90
2008,09,30,08,42,9.90
2008,09,30,08,43,9.90
2008,09,30,08,44,10.00
2008,09,30,08,45,10.00
2008,09,30,08,46,10.10
2008,09,30,08,47,10.10
2008,09,30,08,48,10.10
2008,09,30,08,49,10.20
2008,09,30,08,50,10.30
2008,09,30,08,51,10.30
2008,09,30,08,52,10.40
2008,09,30,08,53,10.50
2008,09,30,08,54,10.50
2008,09,30,08,55,10.70
2008,09,30,08,56,10.80
2008,09,30,08,57,10.90
2008,09,30,08,58,11.00
2008,09,30,08,59,11.10
2008,09,30,09,00,11.20
2008,09,30,09,01,11.30
2008,09,30,09,02,11.40
2008,09,30,09,03,11.40
2008,09,30,09,04,11.50
2008,09,30,09,05,11.60
2008,09,30,09,06,11.60
2008,09,30,09,07,11.70
2008,09,30,09,08,11.80
2008,09,30,09,09,11.90
2008,09,30,09,10,12.00
2008,09,30,09,11,12.10
2008,09,30,09,12,12.30
2008,09,30,09,13,12.40
2008,09,30,09,14,12.60
2008,09,30,09,15,12.70
2008,09,30,09,16,12.90
2008,09,30,09,17,13.00
2008,09,30,09,18,13.20
2008,09,30,09,19,13.30
2008,09,30,09,20,13.50
2008,09,30,09,21,13.80
2008,09,30,09,22,14.00
2008,09,30,09,23,14.20
2008,09,30,09,24,14.40
2008,09,30,09,25,14.60
2008,09,30,09,26,14.80
2008,09,30,09,27,15.00
2008,09,30,09,28,15.00
2008,09,30,09,29,15.20
2008,09,30,09,30,15.30
2008,09,30,09,31,15.50
2008,09,30,09,32,15.60
2008,09,30,09,33,15.80
2008,09,30,09,34,15.90
2008,09,30,09,35,16.00
2008,09,30,09,36,16.10
2008,09,30,09,37,16.20
2008,09,30,09,38,16.30
2008,09,30,09,39,16.30
2008,09,30,09,40,16.40
2008,09,30,09,41,16.50
2008,09,30,09,42,16.60
2008,09,30,09,43,16.70
2008,09,30,09,44,16.80
2008,09,30,09,45,16.90
2008,09,30,09,46,17.00
2008,09,30,09,47,17.00
2008,09,30,09,48,17.10
2008,09,30,09,49,17.10
2008,09,30,09,50,17.20
2008,09,30,09,51,17.30
2008,09,30,09,52,17.30
2008,09,30,09,53,17.40
2008,09,30,09,54,17.40
2008,09,30,09,55,17.50
2008,09,30,09,56,17.60
2008,09,30,09,57,17.60
2008,09,30,09,58,17.70
2008,09,30,09,59,17.80
2008,09,30,10,00,17.80
2008,09,30,10,01,17.90
2008,09,30,10,02,17.90
2008,09,30,10,03,18.00
2008,09,30,10,04,18.00
2008,09,30,10,05,18.00
2008,09,30,10,06,18.10
2008,09,30,10,07,18.10
2008,09,30,10,08,18.10
2008,09,30,10,09,18.20
2008,09,30,10,10,18.20
2008,09,30,10,11,18.30
2008,09,30,10,12,18.30
2008,09,30,10,13,18.30
2008,09,30,10,14,18.40
2008,09,30,10,15,18.40
2008,09,30,10,16,18.40
2008,09,30,10,17,18.40
2008,09,30,10,18,18.40
2008,09,30,10,19,18.50
2008,09,30,10,20,18.50
2008,09,30,10,21,18.60
2008,09,30,10,22,18.60
2008,09,30,10,23,18.60
2008,09,30,10,24,18.60
2008,09,30,10,25,18.70
2008,09,30,10,26,18.70
2008,09,30,10,27,18.70
2008,09,30,10,28,18.80
2008,09,30,10,29,18.80
2008,09,30,10,30,18.80
2008,09,30,10,31,18.90
2008,09,30,10,32,18.90
2008,09,30,10,33,19.00
2008,09,30,10,34,19.10
2008,09,30,10,35,19.10
2008,09,30,10,36,19.20
2008,09,30,10,37,19.30
2008,09,30,10,38,19.40
2008,09,30,10,39,19.50
2008,09,30,10,40,19.60
2008,09,30,10,41,19.70
2008,09,30,10,42,19.70
2008,09,30,10,43,19.60
2008,09,30,10,44,19.50
2008,09,30,10,45,19.40
2008,09,30,10,46,19.40
2008,09,30,10,47,19.30
2008,09,30,10,48,19.30
2008,09,30,10,49,19.30
2008,09,30,10,50,19.30
2008,09,30,10,51,19.30
2008,09,30,10,52,19.30
2008,09,30,10,53,19.30
2008,09,30,10,54,19.20
2008,09,30,10,55,19.20
2008,09,30,10,56,19.10
2008,09,30,10,57,19.10
2008,09,30,10,58,19.00
2008,09,30,10,59,19.00
2008,09,30,11,00,18.90
2008,09,30,11,01,18.90
2008,09,30,11,02,18.90
2008,09,30,11,03,18.90
2008,09,30,11,04,18.80
2008,09,30,11,05,18.80
2008,09,30,11,06,18.80
2008,09,30,11,07,18.70
2008,09,30,11,08,18.70
2008,09,30,11,09,18.70
2008,09,30,11,10,18.60
2008,09,30,11,11,18.60
2008,09,30,11,12,18.60
2008,09,30,11,13,18.60
2008,09,30,11,14,18.60
2008,09,30,11,15,18.60
2008,09,30,11,16,18.60
2008,09,30,11,17,18.60
2008,09,30,11,18,18.60
2008,09,30,11,19,18.60
2008,09,30,11,20,18.50
2008,09,30,11,21,18.40
2008,09,30,11,22,18.40
2008,09,30,11,23,18.30
2008,09,30,11,24,18.30
2008,09,30,11,25,18.20
2008,09,30,11,26,18.20
2008,09,30,11,27,18.20
2008,09,30,11,28,18.20
2008,09,30,11,29,18.20
2008,09,30,11,30,18.10
2008,09,30,11,31,18.10
2008,09,30,11,32,18.20
2008,09,30,11,33,18.20
2008,09,30,11,34,18.20
2008,09,30,11,35,18.20
2008,09,30,11,36,18.30
2008,09,30,11,37,18.40
2008,09,30,11,38,18.50
2008,09,30,11,39,18.60
2008,09,30,11,40,18.70
2008,09,30,11,41,18.80
2008,09,30,11,42,18.80
2008,09,30,11,43,18.90
2008,09,30,11,44,19.00
2008,09,30,11,45,19.00
2008,09,30,11,46,19.10
2008,09,30,11,47,19.20
2008,09,30,11,48,19.30
2008,09,30,11,49,19.40
2008,09,30,11,50,19.40
2008,09,30,11,51,19.50
2008,09,30,11,52,19.60
2008,09,30,11,53,19.70
2008,09,30,11,54,19.70
2008,09,30,11,55,19.80
2008,09,30,11,56,19.80
2008,09,30,11,57,19.90
2008,09,30,11,58,20.00
2008,09,30,11,59,20.10
2008,09,30,12,00,20.20
2008,09,30,12,01,20.30
2008,09,30,12,02,20.40
2008,09,30,12,03,20.50
2008,09,30,12,04,20.60
2008,09,30,12,05,20.60
2008,09,30,12,06,20.70
2008,09,30,12,07,20.70
2008,09,30,12,08,20.70
2008,09,30,12,09,20.70
2008,09,30,12,10,20.70
2008,09,30,12,11,20.80
2008,09,30,12,12,20.80
2008,09,30,12,13,20.70
2008,09,30,12,14,20.70
2008,09,30,12,15,20.70
2008,09,30,12,16,20.60
2008,09,30,12,17,20.50
2008,09,30,12,18,20.50
2008,09,30,12,19,20.40
2008,09,30,12,20,20.40
2008,09,30,12,21,20.30
2008,09,30,12,22,20.30
2008,09,30,12,23,20.20
2008,09,30,12,24,20.10
2008,09,30,12,25,20.10
2008,09,30,12,26,20.10
2008,09,30,12,27,20.10
2008,09,30,12,28,20.10
2008,09,30,12,29,20.00
2008,09,30,12,30,19.90
2008,09,30,12,31,19.90
2008,09,30,12,32,19.90
2008,09,30,12,33,19.90
2008,09,30,12,34,19.90
2008,09,30,12,35,19.90
2008,09,30,12,36,19.90
2008,09,30,12,37,19.90
2008,09,30,12,38,19.90
2008,09,30,12,39,20.00
2008,09,30,12,40,20.00
2008,09,30,12,41,20.00
2008,09,30,12,42,19.90
2008,09,30,12,43,19.90
2008,09,30,12,44,19.80
2008,09,30,12,45,19.80
2008,09,30,12,46,19.90
2008,09,30,12,47,19.90
2008,09,30,12,48,20.00
2008,09,30,12,49,20.10
2008,09,30,12,50,20.10
2008,09,30,12,51,20.20
2008,09,30,12,52,20.30
2008,09,30,12,53,20.30
2008,09,30,12,54,20.40
2008,09,30,12,55,20.40
2008,09,30,12,56,20.40
2008,09,30,12,57,20.30
2008,09,30,12,58,20.30
2008,09,30,12,59,20.30
2008,09,30,13,00,20.30
2008,09,30,13,01,20.30
2008,09,30,13,02,20.30
2008,09,30,13,03,20.20
2008,09,30,13,04,20.20
2008,09,30,13,05,20.20
2008,09,30,13,06,20.20
2008,09,30,13,07,20.20
2008,09,30,13,08,20.20
2008,09,30,13,09,20.20
2008,09,30,13,10,20.20
2008,09,30,13,11,20.20
2008,09,30,13,12,20.20
2008,09,30,13,13,20.20
2008,09,30,13,14,20.20
2008,09,30,13,15,20.20
2008,09,30,13,16,20.20
2008,09,30,13,17,20.20
2008,09,30,13,18,20.20
2008,09,30,13,19,20.20
2008,09,30,13,20,20.30
2008,09,30,13,21,20.30
2008,09,30,13,22,20.30
2008,09,30,13,23,20.40
2008,09,30,13,24,20.40
2008,09,30,13,25,20.40
2008,09,30,13,26,20.40
2008,09,30,13,27,20.40
2008,09,30,13,28,20.40
2008,09,30,13,29,20.40
2008,09,30,13,30,20.30
2008,09,30,13,31,20.20
2008,09,30,13,32,20.10
2008,09,30,13,33,20.00
2008,09,30,13,34,20.00
2008,09,30,13,35,20.00
2008,09,30,13,36,20.00
2008,09,30,13,37,20.00
2008,09,30,13,38,20.00
2008,09,30,13,39,20.10
2008,09,30,13,40,20.10
2008,09,30,13,41,20.20
2008,09,30,13,42,20.30
2008,09,30,13,43,20.30
2008,09,30,13,44,20.40
2008,09,30,13,45,20.40
2008,09,30,13,46,20.50
2008,09,30,13,47,20.60
2008,09,30,13,48,20.70
2008,09,30,13,49,20.80
2008,09,30,13,50,20.80
2008,09,30,13,51,20.90
2008,09,30,13,52,20.90
2008,09,30,13,53,21.00
2008,09,30,13,54,21.10
2008,09,30,13,55,21.10
2008,09,30,13,56,21.10
2008,09,30,13,57,21.20
2008,09,30,13,58,21.20
2008,09,30,13,59,21.30
2008,09,30,14,00,21.30
2008,09,30,14,01,21.30
2008,09,30,14,02,21.30
2008,09,30,14,03,21.30
2008,09,30,14,04,21.30
2008,09,30,14,05,21.30
2008,09,30,14,06,21.30
2008,09,30,14,07,21.30
2008,09,30,14,08,21.30
2008,09,30,14,09,21.40
2008,09,30,14,10,21.40
2008,09,30,14,11,21.40
2008,09,30,14,12,21.40
2008,09,30,14,13,21.40
2008,09,30,14,14,21.40
2008,09,30,14,15,21.50
2008,09,30,14,16,21.50
2008,09,30,14,17,21.50
2008,09,30,14,18,21.50
2008,09,30,14,19,21.50
2008,09,30,14,20,21.40
2008,09,30,14,21,21.40
2008,09,30,14,22,21.40
2008,09,30,14,23,21.30
2008,09,30,14,24,21.30
2008,09,30,14,25,21.30
2008,09,30,14,26,21.30
2008,09,30,14,27,21.30
2008,09,30,14,28,21.30
2008,09,30,14,29,21.20
2008,09,30,14,30,21.20
2008,09,30,14,31,21.10
2008,09,30,14,32,21.10
2008,09,30,14,33,21.10
2008,09,30,14,34,21.10
2008,09,30,14,35,21.10
2008,09,30,14,36,21.00
2008,09,30,14,37,21.00
2008,09,30,14,38,21.00
2008,09,30,14,39,20.90
2008,09,30,14,40,20.90
2008,09,30,14,41,20.90
2008,09,30,14,42,20.80
2008,09,30,14,43,20.80
2008,09,30,14,44,20.80
2008,09,30,14,45,20.80
2008,09,30,14,46,20.80
2008,09,30,14,47,20.80
2008,09,30,14,48,20.80
2008,09,30,14,49,20.80
2008,09,30,14,50,20.80
2008,09,30,14,51,20.80
2008,09,30,14,52,20.80
2008,09,30,14,53,20.80
2008,09,30,14,54,20.80
2008,09,30,14,55,20.80
2008,09,30,14,56,20.80
2008,09,30,14,57,20.80
2008,09,30,14,58,20.80
2008,09,30,14,59,20.80
2008,09,30,15,00,20.80
2008,09,30,15,01,20.80
2008,09,30,15,02,20.80
2008,09,30,15,03,20.80
2008,09,30,15,04,20.80
2008,09,30,15,05,20.80
2008,09,30,15,06,20.80
2008,09,30,15,07,20.80
2008,09,30,15,08,20.80
2008,09,30,15,09,20.70
2008,09,30,15,10,20.70
2008,09,30,15,11,20.60
2008,09,30,15,12,20.60
2008,09,30,15,13,20.50
2008,09,30,15,14,20.40
2008,09,30,15,15,20.30
2008,09,30,15,16,20.30
2008,09,30,15,17,20.20
2008,09,30,15,18,20.20
2008,09,30,15,19,20.20
2008,09,30,15,20,20.20
2008,09,30,15,21,20.20
2008,09,30,15,22,20.20
2008,09,30,15,23,20.20
2008,09,30,15,24,20.20
2008,09,30,15,25,20.30
2008,09,30,15,26,20.30
2008,09,30,15,27,20.30
2008,09,30,15,28,20.30
2008,09,30,15,29,20.30
2008,09,30,15,30,20.20
2008,09,30,15,31,20.20
2008,09,30,15,32,20.20
2008,09,30,15,33,20.20
2008,09,30,15,34,20.20
2008,09,30,15,35,20.20
2008,09,30,15,36,20.20
2008,09,30,15,37,20.20
2008,09,30,15,38,20.10
2008,09,30,15,39,20.10
2008,09,30,15,40,20.10
2008,09,30,15,41,20.00
2008,09,30,15,42,20.00
2008,09,30,15,43,20.00
2008,09,30,15,44,20.00
2008,09,30,15,45,20.00
2008,09,30,15,46,20.00
2008,09,30,15,47,20.00
2008,09,30,15,48,20.00
2008,09,30,15,49,20.10
2008,09,30,15,50,20.10
2008,09,30,15,51,20.10
2008,09,30,15,52,20.10
2008,09,30,15,53,20.10
2008,09,30,15,54,20.10
2008,09,30,15,55,20.10
2008,09,30,15,56,20.10
2008,09,30,15,57,20.10
2008,09,30,15,58,20.10
2008,09,30,15,59,20.10
2008,09,30,16,00,20.10
2008,09,30,16,01,20.10
2008,09,30,16,02,20.10
2008,09,30,16,03,20.10
2008,09,30,16,04,20.00
2008,09,30,16,05,20.00
2008,09,30,16,06,20.00
2008,09,30,16,07,20.00
2008,09,30,16,08,20.00
2008,09,30,16,09,20.00
2008,09,30,16,10,20.00
2008,09,30,16,11,20.00
2008,09,30,16,12,20.10
2008,09,30,16,13,20.10
2008,09,30,16,14,20.10
2008,09,30,16,15,20.10
2008,09,30,16,16,20.20
2008,09,30,16,17,20.20
2008,09,30,16,18,20.20
2008,09,30,16,19,20.20
2008,09,30,16,20,20.30
2008,09,30,16,21,20.30
2008,09,30,16,22,20.30
2008,09,30,16,23,20.30
2008,09,30,16,24,20.30
2008,09,30,16,25,20.30
2008,09,30,16,26,20.30
2008,09,30,16,27,20.30
2008,09,30,16,28,20.30
2008,09,30,16,29,20.30
2008,09,30,16,30,20.30
2008,09,30,16,31,20.30
2008,09,30,16,32,20.30
2008,09,30,16,33,20.30
2008,09,30,16,34,20.20
2008,09,30,16,35,20.20
2008,09,30,16,36,20.20
2008,09,30,16,37,20.20
2008,09,30,16,38,20.20
2008,09,30,16,39,20.20
2008,09,30,16,40,20.20
2008,09,30,16,41,20.20
2008,09,30,16,42,20.20
2008,09,30,16,43,20.10
2008,09,30,16,44,20.10
2008,09,30,16,45,20.10
2008,09,30,16,46,20.00
2008,09,30,16,47,19.90
2008,09,30,16,48,19.90
2008,09,30,16,49,19.80
2008,09,30,16,50,19.80
2008,09,30,16,51,19.80
2008,09,30,16,52,19.70
2008,09,30,16,53,19.70
2008,09,30,16,54,19.70
2008,09,30,16,55,19.60
2008,09,30,16,56,19.60
2008,09,30,16,57,19.60
2008,09,30,16,58,19.50
2008,09,30,16,59,19.50
2008,09,30,17,00,19.40
2008,09,30,17,01,19.40
2008,09,30,17,02,19.30
2008,09,30,17,03,19.30
2008,09,30,17,04,19.30
2008,09,30,17,05,19.20
2008,09,30,17,06,19.20
2008,09,30,17,07,19.20
2008,09,30,17,08,19.20
2008,09,30,17,09,19.20
2008,09,30,17,10,19.20
2008,09,30,17,11,19.20
2008,09,30,17,12,19.10
2008,09,30,17,13,19.10
2008,09,30,17,14,19.10
2008,09,30,17,15,19.10
2008,09,30,17,16,19.10
2008,09,30,17,17,19.00
2008,09,30,17,18,19.00
2008,09,30,17,19,18.90
2008,09,30,17,20,18.90
2008,09,30,17,21,18.80
2008,09,30,17,22,18.80
2008,09,30,17,23,18.70
2008,09,30,17,24,18.70
2008,09,30,17,25,18.70
2008,09,30,17,26,18.60
2008,09,30,17,27,18.50
2008,09,30,17,28,18.50
2008,09,30,17,29,18.50
2008,09,30,17,30,18.50
2008,09,30,17,31,18.40
2008,09,30,17,32,18.40
2008,09,30,17,33,18.40
2008,09,30,17,34,18.40
2008,09,30,17,35,18.40
2008,09,30,17,36,18.30
2008,09,30,17,37,18.30
2008,09,30,17,38,18.20
2008,09,30,17,39,18.20
2008,09,30,17,40,18.20
2008,09,30,17,41,18.10
2008,09,30,17,42,18.10
2008,09,30,17,43,18.10
2008,09,30,17,44,18.10
2008,09,30,17,45,18.00
2008,09,30,17,46,18.00
2008,09,30,17,47,18.00
2008,09,30,17,48,18.00
2008,09,30,17,49,17.90
2008,09,30,17,50,17.90
2008,09,30,17,51,17.90
2008,09,30,17,52,17.90
2008,09,30,17,53,17.90
2008,09,30,17,54,17.80
2008,09,30,17,55,17.80
2008,09,30,17,56,17.80
2008,09,30,17,57,17.70
2008,09,30,17,58,17.70
2008,09,30,17,59,17.70
2008,09,30,18,00,17.70
2008,09,30,18,01,17.70
2008,09,30,18,02,17.70
2008,09,30,18,03,17.70
2008,09,30,18,04,17.70
2008,09,30,18,05,17.70
2008,09,30,18,06,17.70
2008,09,30,18,07,17.60
2008,09,30,18,08,17.60
2008,09,30,18,09,17.60
2008,09,30,18,10,17.50
2008,09,30,18,11,17.40
2008,09,30,18,12,17.40
2008,09,30,18,13,17.40
2008,09,30,18,14,17.40
2008,09,30,18,15,17.30
2008,09,30,18,16,17.30
2008,09,30,18,17,17.30
2008,09,30,18,18,17.30
2008,09,30,18,19,17.30
2008,09,30,18,20,17.30
2008,09,30,18,21,17.30
2008,09,30,18,22,17.30
2008,09,30,18,23,17.30
2008,09,30,18,24,17.40
2008,09,30,18,25,17.40
2008,09,30,18,26,17.40
2008,09,30,18,27,17.40
2008,09,30,18,28,17.30
2008,09,30,18,29,17.30
2008,09,30,18,30,17.30
2008,09,30,18,31,17.30
2008,09,30,18,32,17.30
2008,09,30,18,33,17.20
2008,09,30,18,34,17.20
2008,09,30,18,35,17.20
2008,09,30,18,36,17.10
2008,09,30,18,37,17.10
2008,09,30,18,38,17.10
2008,09,30,18,39,17.00
2008,09,30,18,40,17.00
2008,09,30,18,41,17.00
2008,09,30,18,42,16.90
2008,09,30,18,43,16.90
2008,09,30,18,44,16.90
2008,09,30,18,45,16.80
2008,09,30,18,46,16.80
2008,09,30,18,47,16.80
2008,09,30,18,48,16.70
2008,09,30,18,49,16.70
2008,09,30,18,50,16.60
2008,09,30,18,51,16.60
2008,09,30,18,52,16.60
2008,09,30,18,53,16.50
2008,09,30,18,54,16.50
2008,09,30,18,55,16.50
2008,09,30,18,56,16.40
2008,09,30,18,57,16.40
2008,09,30,18,58,16.30
2008,09,30,18,59,16.30
2008,09,30,19,00,16.30
2008,09,30,19,01,16.20
2008,09,30,19,02,16.20
2008,09,30,19,03,16.20
2008,09,30,19,04,16.20
2008,09,30,19,05,16.20
2008,09,30,19,06,16.10
2008,09,30,19,07,16.10
2008,09,30,19,08,16.10
2008,09,30,19,09,16.10
2008,09,30,19,10,16.00
2008,09,30,19,11,16.00
2008,09,30,19,12,15.90
2008,09,30,19,13,15.80
2008,09,30,19,14,15.80
2008,09,30,19,15,15.70
2008,09,30,19,16,15.70
2008,09,30,19,17,15.60
2008,09,30,19,18,15.60
2008,09,30,19,19,15.60
2008,09,30,19,20,15.50
2008,09,30,19,21,15.50
2008,09,30,19,22,15.40
2008,09,30,19,23,15.40
2008,09,30,19,24,15.40
2008,09,30,19,25,15.30
2008,09,30,19,26,15.30
2008,09,30,19,27,15.30
2008,09,30,19,28,15.20
2008,09,30,19,29,15.20
2008,09,30,19,30,15.20
2008,09,30,19,31,15.10
2008,09,30,19,32,15.10
2008,09,30,19,33,15.00
2008,09,30,19,34,15.00
2008,09,30,19,35,15.00
2008,09,30,19,36,15.00
2008,09,30,19,37,15.00
2008,09,30,19,38,15.00
2008,09,30,19,39,15.00
2008,09,30,19,40,15.00
2008,09,30,19,41,15.00
2008,09,30,19,42,15.00
2008,09,30,19,43,14.90
2008,09,30,19,44,14.90
2008,09,30,19,45,14.90
2008,09,30,19,46,14.90
2008,09,30,19,47,14.80
2008,09,30,19,48,14.80
2008,09,30,19,49,14.80
2008,09,30,19,50,14.70
2008,09,30,19,51,14.70
2008,09,30,19,52,14.60
2008,09,30,19,53,14.60
2008,09,30,19,54,14.60
2008,09,30,19,55,14.60
2008,09,30,19,56,14.60
2008,09,30,19,57,14.50
2008,09,30,19,58,14.50
2008,09,30,19,59,14.40
2008,09,30,20,00,14.40
2008,09,30,20,01,14.40
2008,09,30,20,02,14.30
2008,09,30,20,03,14.30
2008,09,30,20,04,14.30
2008,09,30,20,05,14.30
2008,09,30,20,06,14.20
2008,09,30,20,07,14.20
2008,09,30,20,08,14.20
2008,09,30,20,09,14.20
2008,09,30,20,10,14.10
2008,09,30,20,11,14.10
2008,09,30,20,12,14.10
2008,09,30,20,13,14.00
2008,09,30,20,14,14.00
2008,09,30,20,15,13.90
2008,09,30,20,16,13.90
2008,09,30,20,17,13.80
2008,09,30,20,18,13.80
2008,09,30,20,19,13.80
2008,09,30,20,20,13.80
2008,09,30,20,21,13.70
2008,09,30,20,22,13.70
2008,09,30,20,23,13.70
2008,09,30,20,24,13.70
2008,09,30,20,25,13.70
2008,09,30,20,26,13.60
2008,09,30,20,27,13.60
2008,09,30,20,28,13.60
2008,09,30,20,29,13.60
2008,09,30,20,30,13.60